Location: Holkham
(52.9500°N, 0.8167°E)
Time: 12:53:54
(UTC+00:00)

Cosmos 2221 - Pass Details

Date: 24 December 2025
Orbit: 569 x 589 km, 82.5° (Epoch: 25 January)

Event Time Altitude Azimuth Distance (km) Brightness Sun altitude
Rises 19:09:55 0° 239° (WSW) 2,780 6.8 -29.4°
Reaches altitude 10° 19:12:55 10° 262° (W) 1,883 5.9 -29.9°
Maximum altitude 19:15:24 15° 299° (WNW) 1,571 5.3 -30.2°
Drops below altitude 10° 19:17:52 10° 336° (NNW) 1,887 5.3 -30.6°
Enters shadow 19:17:56 10° 337° (NNW) 1,903 5.3 -30.6°
